Grey Oaks, NY

5:44 AM EDT on May 29, 2017 (GMT -0400)
Homefield | | Change Station
Active Advisory: Coastal Flood Statement Active Notice: Coastal Flood Statement

Elev 150 ft 40.97 °N, 73.87 °W | Updated 15 seconds ago

Overcast
Overcast
57.0 °F
Feels Like 57.0 °F
N
0.0
Wind Variable Wind from SE
Gusts 0.0 mph

Today
High -- | Low -- °F
--% Chance of Precip.
Yesterday
High -- | Low -- °F
Precip. -- in
Pressure 29.88 in
Visibility 8.0 miles
Clouds Few 1100 ft
Mostly Cloudy 5000 ft
Dew Point 56 °F
Humidity 95%
Rainfall 0.04 in
Snow Depth Not available.
5:27 AM 8:19 PM
Waxing Crescent, 18% visible
METAR KHPN 290856Z 09006KT 8SM -RA FEW011 BKN050 13/11 A2989 RMK AO2 RAB01E12B41 SLP119 P0002 60002 T01280111 55005
Pressure 29.88 in
Visibility 8.0 miles
Clouds Few 1100 ft
Mostly Cloudy 5000 ft
Dew Point 56 °F
Humidity 95%
Rainfall 0.04 in
Snow Depth Not available.
5:27 AM 8:19 PM
Waxing Crescent, 18% visible
METAR KHPN 290856Z 09006KT 8SM -RA FEW011 BKN050 13/11 A2989 RMK AO2 RAB01E12B41 SLP119 P0002 60002 T01280111 55005

Get Your Daily Forecast Email!

Thanks for signing up!

Be on the lookout for a verification email in your inbox.

You'll start receiving severe weather alerts in your inbox..

×

10-Day Weather Forecast

Almanac

Astronomy

May. 29, 2017 Rise Set
Actual Time
Civil Twilight
Nautical Twilight
Astronomical Twilight
Moon
Length of Visible Light
Length of Day
Tomorrow will be .
, % of the Moon is Illuminated

Today's Extremes

State Highs State Lows

Community

WunderPhotos

Category 6

Welcome to Category 6. This is the collective home for Weather Underground's featured writeups by Dr. Jeff Masters (right), Bob Henson (left), Chris Burt, and other regular contributors.

Nearby

Air Quality

  Air Quality AQ Index Pollutant
Not available.

Snow Depth

Station Depth Elevation

Earthquake Activity

City Distance Mag. Time & Date
Minimum magnitude displayed is 2.5.

Coastal Water Temperatures

Place Temperature

Stations

Nearby Weather Stations

Station Location Temp. Windchill Dew Point Humidity Wind Precip. Elev Updated Type
                   

Watches & Warnings

Coastal Flood Statement
Issued: 5:03 AM EDT May. 29, 2017 – National Weather Service

* locations... northeast New Jersey... southern
Westchester... southern Fairfield... and the South Shore back
bays of New York City and Nassau County.

* Positive tidal departures... 1 to 1 1/2 ft.

* Timing... around the times of high tide tonight.

* Impacts... brief minor flooding of the most vulnerable Waterfront
and shoreline roads.